Regional Weather Roundup
Issued by NWS

Home | Current Version | Previous Version | Text Only | Print | Product List | Glossary Off
Versions: 1 2 3 4 5 6 7 8 9 10 11 12 13 14 15 16 17 18 19 20 21 22 23 24 25 26 27 28 29 30 31 32 33 34 35 36 37 38 39 40 41 42 43 44 45 46 47 48 49 50

000
ASUS45 KTFX 220919
RWRMT
MONTANA HOURLY WEATHER ROUNDUP
NATIONAL WEATHER SERVICE GREAT FALLS MT
319 AM MDT TUE JUL 22 2014

NOTE: "FAIR" INDICATES FEW OR NO CLOUDS BELOW 12000 FEET WITH NO
SIGNIFICANT WEATHER AND/OR OBSTRUCTIONS TO VISIBILITY.

* THESE STATIONS ARE NOT UNDER NWS QUALITY CONTROL. THEY DO NOT
   REPORT WEATHER SUCH AS PRECIPITATION OR FOG.

MTZ001>007-043-221000-
WEST OF THE DIVIDE
CITY           SKY/WX    TMP DP  RH WIND       PRES   REMARKS
KALISPELL      MOCLDY    50  45  83 SW3       30.10R
MISSOULA       MOCLDY    54  41  62 NW5       30.13R
BUTTE          RAIN      55  52  90 N6        30.24R
MULLAN PASS    CLOUDY    55  28  35 S6        30.21S
* ESSEX        N/A       53  43  69 S11G17     N/A
* LINCOLN      N/A       53  52  96 SE2        N/A
* LOOKOUT PASS N/A       52  38  59 N/A        N/A
* POLSON       N/A       55  37  51 N/A        N/A
* RONAN APT    MOCLDY    52  46  80 N/A        N/A
* SEELEY LAKE  N/A       46  41  83 NE1        N/A
* THOMP F APT  MOCLDY    56  47  72 SE1G7      N/A
* YAAK HILL    N/A       54  44  69 NE1        N/A
$$

MTZ008-052>055-221000-
SOUTHWEST MONTANA
CITY           SKY/WX    TMP DP  RH WIND       PRES   REMARKS
BOZEMAN        MOCLDY    63  54  73 SW6       30.15R
DILLON         MOCLDY    59  54  84 CALM      30.18R
W YELLOWSTONE  MOCLDY    45  45 100 CALM      30.30F
* THREE FORKS  MOCLDY    64  64 100 N/A        N/A
* BOULDER HILL N/A       56  44  64 NE4        N/A
* MONIDA PASS  N/A       56  44  64 S11        N/A
* RAYNOLDS PAS N/A       54  35  49 S16G21     N/A
* WHITEHALL    N/A       64  50  61 S4G10      N/A
* WISE RIVER   N/A       57  52  83 W3         N/A
$$

MTZ009>010-012-014-046-048-049-054-221000-
EAST SLOPES AND CENTRAL MONTANA
CITY           SKY/WX    TMP DP  RH WIND       PRES   REMARKS
CUT BANK       PTCLDY    52  48  86 W5        30.17R
GREAT FALLS    MOCLDY    59  46  62 CALM      30.13R
HELENA         CLOUDY    66  48  52 CALM      30.15R
MALMSTROM AFB  MOCLDY    55  46  72 S6        30.15R
* CONRAD       PTCLDY    48  48 100 N/A        N/A
* DEARBORN     N/A       66  45  47 S1         N/A
* EAST GLACIER N/A       47  44  89 W1         N/A
* MONARCH      N/A       56  40  55 SE5        N/A
* ROGERS PASS  N/A       52  49  90 VRB2       N/A
* SAINT MARY   N/A       46  42  86 SE3        N/A
* SWEET GRASS  N/A       52  52 100 SW7        N/A
* WHITE SULPH  N/A       59  55  87 N7         N/A
$$

MTZ011-013-016-021-035-040-045-047-050-051-221000-
NORTH CENTRAL MONTANA
CITY           SKY/WX    TMP DP  RH WIND       PRES   REMARKS
HAVRE          CLEAR     57  52  83 E6        30.12R
LEWISTOWN      CLOUDY    57  54  90 SE6       30.17R
* FORT BENTON  PTCLDY    57  52  83 N3        30.12R
* CHESTER      N/A       54  49  83 NE2        N/A
* DENTON       N/A       54  52  93 SW2        N/A
* GEYSER       N/A       61  47  60 NE6        N/A
* JUDITH GAP   N/A       58  56  93 N6         N/A
* LOMA         N/A       61  53  75 NE1        N/A
$$

MTZ017>020-022>027-061-062-221000-
NORTHEAST MONTANA
CITY           SKY/WX    TMP DP  RH WIND       PRES   REMARKS
GLASGOW        CLEAR     57  54  90 N6        30.09R
GLENDIVE       PTCLDY    59  55  87 SW3       30.12R
JORDAN         PTCLDY    57  54  90 CALM      30.10R
SIDNEY         PTCLDY    57  54  90 SW3       30.10R
WOLF POINT     CLEAR     55  54  96 NW3       30.08S
* BEAVER HILL  N/A       61  59  93 SE9        N/A
* CIRCLE       N/A       63  58  84 N/A        N/A
* LINDSAY DVD  N/A       62  58  87 S4         N/A
* NAVAJO       N/A       58  56  93 W8         N/A
$$

MTZ028>042-056>058-221000-
SOUTHCENTRAL AND SOUTHEAST MONTANA
CITY           SKY/WX    TMP DP  RH WIND       PRES   REMARKS
BAKER          PTCLDY    55  54  96 CALM      30.13R
BILLINGS       MOCLDY    64  54  70 CALM      30.13F
LIVINGSTON     PTCLDY    61  48  62 CALM      30.16R
MILES CITY     MOCLDY    66  57  73 NE8       30.09R
* LAUREL APT   MOCLDY    61  48  62 N/A        N/A
* ROUNDUP APT  MOCLDY    61  55  81 N/A        N/A
* ALZADA       N/A       60  58  93 N/A        N/A
* HYSHAM       N/A       62  52  70 SE1        N/A
* LAME DEER    N/A       63  54  73 VRB2       N/A
* REED POINT   N/A       63  54  73 SE4        N/A
* ROSCOE HILL  N/A       64  45  50 SE12       N/A
$$

REGIONAL REPORTS...DAKOTAS
CITY           SKY/WX    TMP DP  RH WIND       PRES   REMARKS
WILLISTON      MOCLDY    61  57  87 CALM      30.07R
DICKINSON      FOG       55  55 100 NW3       30.08F VSB 1 1/2
CROSBY         MOCLDY    61  61 100 N5        30.09R
TIOGA          FOG       50  50 100 E3        30.12R VSB M1/4
WATFORD CITY   FOG       54  54 100 CALM      30.08R
BISMARCK       CLOUDY    63  61  93 W3        30.07R
GRAND FORKS    CLOUDY    64  61  90 NW12      29.91R
FARGO          CLOUDY    66  64  93 NW10      29.90R
BUFFALO SD     PTCLDY    61  61 100 N10       30.05R
RAPID CITY     PTCLDY    63  61  93 N5        30.11S
$$

REGIONAL REPORTS...WYOMING/IDAHO/WASHINGTON
CITY           SKY/WX    TMP DP  RH WIND       PRES   REMARKS
GILLETTE       PTCLDY    61  55  81 S13       30.18R
SHERIDAN       PTCLDY    59  55  87 CALM      30.16R
CODY           CLOUDY    66  39  37 CALM      30.22R
YELLOWSTONE LA PTCLDY    43  43 100 W3        30.43R
SALMON         CLOUDY    64  48  56 N5        30.10R
MULLAN PASS    CLOUDY    55  28  35 S6        30.21S
SAND POINT     MOCLDY    52  52 100 CALM      30.05S
SPOKANE        CLOUDY    66  43  43 SE6       30.02S
$$

REGIONAL REPORTS...ALBERTA
CITY           SKY/WX    TMP DP  RH WIND       PRES   REMARKS
CALGARY        N/A       55  52  90 S9G17     30.13S
LETHBRIDGE     CLEAR     52  50  93 S5        30.13S
MEDICINE HAT   CLEAR     54  50  86 SE3       30.13R
EDMONTON       FAIR      48  46  93 VRB2      30.10R
WATERTON GATE  N/A       50  50 100 E2         N/A
CARDSTON       N/A       50  50 100 SE3        N/A
MILK RIVER     N/A       48  46  93 NW2        N/A
$$

REGIONAL REPORTS...SASKATCHEWAN
CITY           SKY/WX    TMP DP  RH WIND       PRES   REMARKS
SWIFT CURRENT  FOG       52  52 100 NW6       30.13R VSB M1/4
REGINA         PTCLDY    59  59 100 SW2       30.10R
VAL MARIE      N/A       48  48 100 NW5        N/A
ASSINIBOIA     N/A       55  54  96 NE3        N/A
CORONACH       N/A       54  52  93 S2         N/A

$$




USA.gov is the U.S. government's official web portal to all federal, state and local government web resources and services.